Regional Weather Roundup
Issued by NWS

Home | Current Version | Previous Version | Text Only | Print | Product List | Glossary Off
Versions: 1 2 3 4 5 6 7 8 9 10 11 12 13 14 15 16 17 18 19 20 21 22 23 24 25 26 27 28 29 30 31 32 33 34 35 36 37 38 39 40 41 42 43 44 45 46 47 48 49 50

000
ASUS44 KMEG 290000
RWRTN
TENNESSEE HOURLY STATE WEATHER ROUNDUP
NATIONAL WEATHER SERVICE MEMPHIS TN
700 PM CDT THU MAY 28 2015

TNZ002-004-019-021-049-052-054-088>092-290100-
WEST TENNESSEE

CITY           SKY/WX    TMP DP  RH WIND       PRES   REMARKS
MEMPHIS INTL   MOSUNNY   81  64  56 S5        30.07F
NWS MEMPHIS      N/A     83 N/A N/A MISG        N/A
JACKSON        SUNNY     79  65  62 CALM      30.09F
DYERSBURG      MOSUNNY   79  57  47 SE3       30.09S
PARIS          MOSUNNY   79  66  65 SW7       30.10R
LEXINGTON      MOSUNNY   79  66  65 W5        30.10R
$$

TNZ008-025-027-028-033-062-065-066-290100-
NORTH MIDDLE TENNESSEE

CITY           SKY/WX    TMP DP  RH WIND       PRES   REMARKS
NASHVILLE      MOCLDY    81  65  58 S8        30.12R
CLARKSVILLE    SUNNY     80  66  62 SE3       30.10S
COOKEVILLE     MOCLDY    79  70  73 CALM      30.15R
CROSSVILLE     PTCLDY    75  64  68 SE5       30.20R
$$

TNZ061-075-076-078-094-096-097-290100-
SOUTH MIDDLE TENNESSEE

CITY           SKY/WX    TMP DP  RH WIND       PRES   REMARKS
FAYETTEVILLE   CLOUDY   N/A N/A N/A MISG      30.14R
TULLAHOMA      PTCLDY    79  64  61 SE5       30.16R
WINCHESTER     PTCLDY    77  66  69 SE17      30.16R
COLUMBIA       CLEAR     82  68  61 CALM      30.11R
SHELBYVILLE    CLEAR     81  72  74 CALM      30.13S
$$

TNZ017-018-042-046-047-290100-
NORTHEAST TENNESSEE

CITY           SKY/WX    TMP DP  RH WIND       PRES   REMARKS
TRI CITIES     CLOUDY    70  64  81 CALM      30.23R
ELIZABETHTON   PTCLDY    64  64 100 CALM      30.23S
$$

TNZ012-013-036-069-073-074-290100-
CENTRAL EAST TENNESSEE

CITY           SKY/WX    TMP DP  RH WIND       PRES   REMARKS
KNOXVILLE      CLOUDY    80  65  59 CALM      30.15S
OAK RIDGE      CLOUDY    81  64  56 VRB5      30.17S
GATLINBURG       N/A     73  66  78 CALM      30.16S
$$

TNZ083-085-099-290100-
SOUTHEAST TENNESSEE

CITY           SKY/WX    TMP DP  RH WIND       PRES   REMARKS
CHATTANOOGA    TSTM      69  66  90 CALM      30.19R
$$

SKY/WX REPORTED AS FAIR MEANS FEW OR NO CLOUDS BELOW
12 THOUSAND FEET.




USA.gov is the U.S. government's official web portal to all federal, state and local government web resources and services.